1597096932,2020-08-11 00:02,77.86,1001.13,1019.44,152,19.36,15.41,-93,1
1597097059,2020-08-11 00:04,77.49,1001.13,1019.44,152,19.35,15.33,-93,1
1597097119,2020-08-11 00:05,77.80,1001.12,1019.43,152,19.35,15.39,-92,1
1597097181,2020-08-11 00:06,77.99,1001.12,1019.43,152,19.33,15.41,-92,1
1597097241,2020-08-11 00:07,77.94,1001.13,1019.44,152,19.33,15.40,-93,1
1597097304,2020-08-11 00:08,78.04,1001.16,1019.47,152,19.23,15.32,-93,1
1597097365,2020-08-11 00:09,78.42,1001.14,1019.46,152,19.25,15.42,-94,1
1597097428,2020-08-11 00:10,78.40,1001.15,1019.47,152,19.24,15.41,-93,1
1597097488,2020-08-11 00:11,78.14,1001.15,1019.46,152,19.20,15.31,-93,1
1597097549,2020-08-11 00:12,78.84,1001.18,1019.50,152,19.23,15.48,-92,1
1597097609,2020-08-11 00:13,77.62,1001.22,1019.53,152,19.23,15.24,-94,1
1597097670,2020-08-11 00:14,78.43,1001.24,1019.55,152,19.20,15.37,-96,1
1597097730,2020-08-11 00:15,78.49,1001.24,1019.56,152,19.18,15.37,-93,1
1597097790,2020-08-11 00:16,79.08,1001.22,1019.54,152,19.16,15.46,-92,1
1597097851,2020-08-11 00:17,79.26,1001.26,1019.57,152,19.13,15.47,-93,1
1597097911,2020-08-11 00:18,79.16,1001.22,1019.53,152,19.11,15.43,-92,1
1597097972,2020-08-11 00:19,79.17,1001.21,1019.53,152,19.09,15.41,-92,1
1597098032,2020-08-11 00:20,79.45,1001.21,1019.53,152,19.07,15.45,-93,1
1597098153,2020-08-11 00:22,79.89,1001.17,1019.49,152,19.02,15.49,-93,1
1597098213,2020-08-11 00:23,80.18,1001.18,1019.49,152,18.94,15.46,-92,1
1597098276,2020-08-11 00:24,80.16,1001.18,1019.49,152,19.00,15.52,-93,1
1597098339,2020-08-11 00:25,79.63,1001.17,1019.48,152,18.99,15.41,-94,1
1597098399,2020-08-11 00:26,80.12,1001.14,1019.45,152,18.97,15.48,-94,1
1597098460,2020-08-11 00:27,79.97,1001.19,1019.50,152,18.97,15.45,-94,1
1597098523,2020-08-11 00:28,80.16,1001.19,1019.50,152,18.96,15.48,-93,1
1597098583,2020-08-11 00:29,80.46,1001.17,1019.49,152,18.95,15.53,-95,1
1597098643,2020-08-11 00:30,80.12,1001.16,1019.47,152,18.94,15.45,-94,1
1597098706,2020-08-11 00:31,80.04,1001.15,1019.47,152,18.87,15.37,-92,1
1597098766,2020-08-11 00:32,79.80,1001.16,1019.47,152,18.88,15.33,-92,1
1597098827,2020-08-11 00:33,80.53,1001.14,1019.46,152,18.84,15.44,-94,1
1597098887,2020-08-11 00:34,80.88,1001.13,1019.44,152,18.82,15.48,-92,1
1597098947,2020-08-11 00:35,80.79,1001.15,1019.47,152,18.80,15.45,-92,1
1597099068,2020-08-11 00:37,80.99,1001.15,1019.47,152,18.77,15.45,-93,1
1597099128,2020-08-11 00:38,81.33,1001.14,1019.45,152,18.75,15.50,-93,1
1597099189,2020-08-11 00:39,80.84,1001.16,1019.47,152,18.74,15.40,-94,1
1597099249,2020-08-11 00:40,81.41,1001.07,1019.38,152,18.74,15.51,-91,1
1597099310,2020-08-11 00:41,81.13,1001.15,1019.46,152,18.73,15.44,-93,1
1597099370,2020-08-11 00:42,80.98,1001.19,1019.50,152,18.73,15.41,-94,1
1597099431,2020-08-11 00:43,81.46,1001.17,1019.48,152,18.71,15.49,-92,1
1597099492,2020-08-11 00:44,80.95,1001.13,1019.45,152,18.70,15.38,-93,1
1597099553,2020-08-11 00:45,80.50,1001.17,1019.48,152,18.72,15.31,-94,1
1597099614,2020-08-11 00:46,80.84,1001.13,1019.44,152,18.69,15.35,-91,1
1597099696,2020-08-11 00:48,81.26,1001.13,1019.44,152,18.69,15.43,-91,1
1597099738,2020-08-11 00:48,81.35,1001.10,1019.41,152,18.67,15.43,-93,1
1597099798,2020-08-11 00:49,81.55,1001.09,1019.40,152,18.67,15.47,-92,1
1597099859,2020-08-11 00:50,81.52,1001.10,1019.41,152,18.66,15.45,-93,1
1597099919,2020-08-11 00:51,81.84,1001.09,1019.41,152,18.68,15.53,-92,1
1597099980,2020-08-11 00:53,81.31,1001.08,1019.40,152,18.67,15.42,-91,1
1597100040,2020-08-11 00:54,81.40,1001.07,1019.39,152,18.67,15.44,-93,1
1597100101,2020-08-11 00:55,81.35,1001.10,1019.41,152,18.67,15.43,-93,1
1597100161,2020-08-11 00:56,81.12,1001.08,1019.39,152,18.66,15.37,-92,1
1597100222,2020-08-11 00:57,80.74,1001.08,1019.39,152,18.66,15.30,-91,1
1597100282,2020-08-11 00:58,80.82,1001.08,1019.39,152,18.65,15.31,-91,1
1597100342,2020-08-11 00:59,81.27,1001.05,1019.37,152,18.64,15.38,-93,1
1597100403,2020-08-11 01:00,81.64,1001.06,1019.37,152,18.64,15.45,-94,1
1597100463,2020-08-11 01:01,81.56,1001.05,1019.37,152,18.63,15.43,-94,1
1597100523,2020-08-11 01:02,81.54,1001.05,1019.37,152,18.62,15.41,-93,1
1597100584,2020-08-11 01:03,81.73,1001.05,1019.36,152,18.61,15.44,-92,1
1597100644,2020-08-11 01:04,81.38,1001.04,1019.35,152,18.60,15.36,-92,1
1597100704,2020-08-11 01:05,81.53,1001.06,1019.37,152,18.60,15.39,-93,1
1597100765,2020-08-11 01:06,81.36,1001.08,1019.39,152,18.59,15.35,-93,1
1597100825,2020-08-11 01:07,81.31,1001.10,1019.41,152,18.58,15.33,-92,1
1597100888,2020-08-11 01:08,81.01,1001.09,1019.41,152,18.57,15.26,-93,1
1597100948,2020-08-11 01:09,79.88,1001.09,1019.40,152,18.57,15.05,-92,1
1597101008,2020-08-11 01:10,81.33,1001.09,1019.41,152,18.55,15.31,-94,1
1597101068,2020-08-11 01:11,81.51,1001.05,1019.37,152,18.53,15.32,-93,1
1597101129,2020-08-11 01:12,81.21,1001.05,1019.36,152,18.53,15.26,-94,1
1597101189,2020-08-11 01:13,81.04,1001.05,1019.36,152,18.51,15.21,-92,1
1597101249,2020-08-11 01:14,80.66,1001.06,1019.38,152,18.50,15.13,-94,1
1597101309,2020-08-11 01:15,81.12,1001.02,1019.33,152,18.50,15.22,-93,1
1597101369,2020-08-11 01:16,80.85,1001.08,1019.39,152,18.48,15.14,-92,1
1597101429,2020-08-11 01:17,81.36,1001.09,1019.40,152,18.46,15.22,-93,1
1597101489,2020-08-11 01:18,81.43,1001.11,1019.42,152,18.45,15.23,-93,1
1597101550,2020-08-11 01:19,81.74,1001.14,1019.45,152,18.43,15.27,-94,1
1597101611,2020-08-11 01:20,81.86,1001.10,1019.42,152,18.42,15.28,-94,1
1597101672,2020-08-11 01:21,81.61,1001.14,1019.46,152,18.42,15.23,-92,1
1597101732,2020-08-11 01:22,82.31,1001.11,1019.42,152,18.42,15.36,-92,1
1597101913,2020-08-11 01:25,82.74,1001.11,1019.42,152,18.38,15.41,-92,1
1597101974,2020-08-11 01:26,82.82,1001.10,1019.41,152,18.38,15.42,-93,1
1597102034,2020-08-11 01:27,81.90,1001.11,1019.42,152,18.37,15.24,-92,1
1597102094,2020-08-11 01:28,82.04,1001.08,1019.39,152,18.36,15.26,-95,1
1597102154,2020-08-11 01:29,81.85,1001.11,1019.42,152,18.36,15.22,-93,1
1597102217,2020-08-11 01:30,81.72,1001.09,1019.40,152,18.35,15.18,-95,1
1597102277,2020-08-11 01:31,81.79,1001.14,1019.45,152,18.34,15.19,-94,1
1597102338,2020-08-11 01:32,82.30,1001.14,1019.45,152,18.35,15.29,-92,1
1597102398,2020-08-11 01:33,82.32,1001.15,1019.46,152,18.34,15.29,-93,1
1597102458,2020-08-11 01:34,81.51,1001.14,1019.45,152,18.32,15.12,-93,1
1597102521,2020-08-11 01:35,82.38,1001.12,1019.44,152,18.33,15.29,-92,1
1597102585,2020-08-11 01:36,81.70,1001.14,1019.46,152,18.32,15.15,-94,1
1597102645,2020-08-11 01:37,82.20,1001.12,1019.43,152,18.31,15.24,-93,1
1597102705,2020-08-11 01:38,81.69,1001.12,1019.44,152,18.30,15.13,-93,1
1597102765,2020-08-11 01:39,81.99,1001.16,1019.47,152,18.30,15.19,-92,1
1597102826,2020-08-11 01:40,82.01,1001.13,1019.44,152,18.30,15.19,-94,1
1597102886,2020-08-11 01:41,81.95,1001.15,1019.46,152,18.30,15.18,-92,1
1597102947,2020-08-11 01:42,81.71,1001.16,1019.48,152,18.29,15.12,-94,1
1597103067,2020-08-11 01:44,81.59,1001.14,1019.45,152,18.29,15.10,-92,1
1597103128,2020-08-11 01:45,81.83,1001.12,1019.44,152,18.28,15.14,-94,1
1597103188,2020-08-11 01:46,82.15,1001.12,1019.43,152,18.26,15.18,-93,1
1597103248,2020-08-11 01:47,81.80,1001.11,1019.43,152,18.24,15.09,-93,1
1597103309,2020-08-11 01:48,82.09,1001.12,1019.43,152,18.24,15.15,-93,1
1597103429,2020-08-11 01:50,82.04,1001.10,1019.41,152,18.24,15.14,-93,1
1597103489,2020-08-11 01:51,81.50,1001.01,1019.32,152,18.24,15.04,-95,1
1597103550,2020-08-11 01:52,81.93,1001.09,1019.41,152,18.24,15.12,-92,1
1597103610,2020-08-11 01:53,81.82,1001.10,1019.42,152,18.23,15.09,-94,1
1597103670,2020-08-11 01:54,82.08,1001.09,1019.40,152,18.23,15.14,-94,1
1597103730,2020-08-11 01:55,81.05,1001.09,1019.41,152,18.23,14.94,-93,1
1597103790,2020-08-11 01:56,81.18,1001.07,1019.39,152,18.23,14.97,-93,1
1597103851,2020-08-11 01:57,81.21,1001.07,1019.38,152,18.23,14.97,-95,1
1597103971,2020-08-11 01:59,80.79,1001.04,1019.35,152,18.23,14.89,-94,1
1597104031,2020-08-11 02:00,80.28,1001.05,1019.37,152,18.23,14.79,-93,1
1597104091,2020-08-11 02:01,80.94,1001.04,1019.35,152,18.20,14.89,-93,1
1597104151,2020-08-11 02:02,80.46,1001.01,1019.33,152,18.22,14.82,-91,1
1597104212,2020-08-11 02:03,80.82,1001.06,1019.38,152,18.21,14.88,-92,1
1597104272,2020-08-11 02:04,80.86,1001.05,1019.36,152,18.21,14.88,-90,1
1597104393,2020-08-11 02:06,80.57,1001.07,1019.38,152,18.22,14.84,-93,1
1597104454,2020-08-11 02:07,80.13,1001.08,1019.40,152,18.22,14.75,-93,1
1597104514,2020-08-11 02:08,79.80,1001.10,1019.41,152,18.24,14.71,-91,1
1597104574,2020-08-11 02:09,80.35,1001.10,1019.42,152,18.25,14.82,-94,1
1597104634,2020-08-11 02:10,80.47,1001.11,1019.43,152,18.26,14.86,-93,1
1597104694,2020-08-11 02:11,79.84,1001.11,1019.43,152,18.26,14.74,-93,1
1597104755,2020-08-11 02:12,78.76,1001.10,1019.41,152,18.27,14.54,-93,1
1597104815,2020-08-11 02:13,79.73,1001.13,1019.45,152,18.28,14.73,-91,1
1597104875,2020-08-11 02:14,79.53,1001.11,1019.42,152,18.28,14.69,-93,1
1597104936,2020-08-11 02:15,79.76,1001.11,1019.43,152,18.29,14.75,-91,1
1597104996,2020-08-11 02:16,79.39,1001.12,1019.43,152,18.28,14.67,-93,1
1597105056,2020-08-11 02:17,78.96,1001.11,1019.43,152,18.29,14.59,-92,1
1597105117,2020-08-11 02:18,78.38,1001.13,1019.44,152,18.30,14.49,-93,1
1597105177,2020-08-11 02:19,78.55,1001.13,1019.44,152,18.32,14.54,-92,1
1597105237,2020-08-11 02:20,78.28,1001.13,1019.44,152,18.33,14.50,-91,1
1597105298,2020-08-11 02:21,78.15,1001.16,1019.47,152,18.33,14.47,-94,1
1597105358,2020-08-11 02:22,78.71,1001.13,1019.44,152,18.34,14.59,-91,1
1597105418,2020-08-11 02:23,79.23,1001.16,1019.48,152,18.34,14.69,-92,1
1597105478,2020-08-11 02:24,78.66,1001.15,1019.46,152,18.33,14.57,-92,1
1597105539,2020-08-11 02:25,78.40,1001.15,1019.46,152,18.37,14.56,-91,1
1597105599,2020-08-11 02:26,77.73,1001.19,1019.50,152,18.39,14.45,-92,1
1597105659,2020-08-11 02:27,78.00,1001.18,1019.49,152,18.40,14.51,-90,1
1597105719,2020-08-11 02:28,77.53,1001.13,1019.44,152,18.42,14.44,-92,1
1597105780,2020-08-11 02:29,77.63,1001.17,1019.48,152,18.43,14.47,-91,1
1597105840,2020-08-11 02:30,77.92,1001.20,1019.52,152,18.45,14.54,-94,1
1597105900,2020-08-11 02:31,77.51,1001.20,1019.51,152,18.46,14.47,-93,1
1597105961,2020-08-11 02:32,78.08,1001.21,1019.52,152,18.47,14.59,-93,1
1597106021,2020-08-11 02:33,77.24,1001.20,1019.52,152,18.49,14.45,-94,1
1597106081,2020-08-11 02:34,76.17,1001.19,1019.51,152,18.50,14.24,-93,1
1597106141,2020-08-11 02:35,75.92,1001.19,1019.50,152,18.52,14.21,-92,1
1597106202,2020-08-11 02:36,78.17,1001.17,1019.48,152,18.53,14.67,-92,1
1597106262,2020-08-11 02:37,78.14,1001.16,1019.47,152,18.54,14.67,-92,1
1597106322,2020-08-11 02:38,77.75,1001.17,1019.49,152,18.54,14.60,-93,1
1597106382,2020-08-11 02:39,77.19,1001.17,1019.48,152,18.55,14.49,-93,1
1597106503,2020-08-11 02:41,76.87,1001.16,1019.47,152,18.56,14.44,-92,1
1597106563,2020-08-11 02:42,77.78,1001.18,1019.50,152,18.57,14.63,-94,1
1597106623,2020-08-11 02:43,77.25,1001.19,1019.50,152,18.57,14.53,-93,1
1597106683,2020-08-11 02:44,76.93,1001.20,1019.51,152,18.58,14.47,-93,1
1597106743,2020-08-11 02:45,77.42,1001.22,1019.53,152,18.59,14.58,-92,1
1597106803,2020-08-11 02:46,76.85,1001.27,1019.58,152,18.60,14.48,-93,1
1597106863,2020-08-11 02:47,77.47,1001.25,1019.57,152,18.58,14.58,-94,1
1597106923,2020-08-11 02:48,76.21,1001.23,1019.55,152,18.62,14.36,-94,1
1597106983,2020-08-11 02:49,76.15,1001.23,1019.54,152,18.63,14.36,-94,1
1597107043,2020-08-11 02:50,76.88,1001.16,1019.47,152,18.64,14.52,-95,1
1597107103,2020-08-11 02:51,77.19,1001.18,1019.49,152,18.64,14.58,-91,1
1597107164,2020-08-11 02:52,75.64,1001.17,1019.48,152,18.64,14.27,-90,1
1597107224,2020-08-11 02:53,77.03,1001.19,1019.50,152,18.65,14.56,-92,1
1597107284,2020-08-11 02:54,76.52,1001.20,1019.52,152,18.66,14.47,-93,1
1597107344,2020-08-11 02:55,76.74,1001.19,1019.50,152,18.67,14.52,-93,1
1597107404,2020-08-11 02:56,76.59,1001.20,1019.51,152,18.67,14.49,-92,1
1597107464,2020-08-11 02:57,75.66,1001.21,1019.53,152,18.68,14.31,-93,1
1597107524,2020-08-11 02:58,75.56,1001.21,1019.52,152,18.69,14.30,-92,1
1597107584,2020-08-11 02:59,76.75,1001.22,1019.54,152,18.68,14.53,-92,1
1597107645,2020-08-11 03:00,76.15,1001.23,1019.55,152,18.69,14.42,-92,1
1597107705,2020-08-11 03:01,76.95,1001.22,1019.54,152,18.69,14.58,-93,1
1597107765,2020-08-11 03:02,75.42,1001.21,1019.52,152,18.69,14.27,-93,1
1597107825,2020-08-11 03:03,76.41,1001.20,1019.51,152,18.69,14.47,-93,1
1597107885,2020-08-11 03:04,75.26,1001.22,1019.53,152,18.70,14.25,-93,1
1597107946,2020-08-11 03:05,76.35,1001.23,1019.54,152,18.69,14.46,-89,1
1597108006,2020-08-11 03:06,77.03,1001.20,1019.51,152,18.69,14.60,-92,1
1597108066,2020-08-11 03:07,76.01,1001.18,1019.50,152,18.70,14.40,-93,1
1597108126,2020-08-11 03:08,74.99,1001.19,1019.50,152,18.71,14.20,-93,1
1597108246,2020-08-11 03:10,76.17,1001.20,1019.52,152,18.71,14.44,-93,1
1597108306,2020-08-11 03:11,75.40,1001.20,1019.51,152,18.73,14.31,-94,1
1597108366,2020-08-11 03:12,75.89,1001.21,1019.52,152,18.72,14.40,-91,1
1597108427,2020-08-11 03:13,76.65,1001.23,1019.54,152,18.71,14.54,-93,1
1597108487,2020-08-11 03:14,76.65,1001.23,1019.54,152,18.72,14.55,-94,1
1597108547,2020-08-11 03:15,76.76,1001.22,1019.54,152,18.72,14.57,-94,1
1597108607,2020-08-11 03:16,76.52,1001.23,1019.54,152,18.72,14.52,-93,1
1597108727,2020-08-11 03:18,76.23,1001.20,1019.52,152,18.72,14.46,-92,1
1597108787,2020-08-11 03:19,76.42,1001.22,1019.53,152,18.72,14.50,-92,1
1597108848,2020-08-11 03:20,76.03,1001.21,1019.53,152,18.73,14.43,-93,1
1597108908,2020-08-11 03:21,77.05,1001.20,1019.52,152,18.73,14.64,-93,1
1597108968,2020-08-11 03:22,75.59,1001.19,1019.50,152,18.73,14.34,-92,1
1597109028,2020-08-11 03:23,76.17,1001.17,1019.49,152,18.72,14.45,-94,1
1597109088,2020-08-11 03:24,76.48,1001.21,1019.52,152,18.72,14.52,-92,1
1597109148,2020-08-11 03:25,75.70,1001.20,1019.51,152,18.72,14.36,-91,1
1597109209,2020-08-11 03:26,76.37,1001.25,1019.56,152,18.72,14.49,-95,1
1597109269,2020-08-11 03:27,76.15,1001.24,1019.55,152,18.71,14.44,-92,1
1597109389,2020-08-11 03:29,77.04,1001.21,1019.52,152,18.70,14.61,-92,1
1597109449,2020-08-11 03:30,76.85,1001.24,1019.55,152,18.70,14.57,-91,1
1597109509,2020-08-11 03:31,76.63,1001.19,1019.51,152,18.69,14.52,-92,1
1597109569,2020-08-11 03:32,75.57,1001.18,1019.49,152,18.69,14.30,-94,1
1597109629,2020-08-11 03:33,75.61,1001.19,1019.51,152,18.69,14.31,-93,1
1597109690,2020-08-11 03:34,76.23,1001.21,1019.52,152,18.68,14.43,-93,1
1597109750,2020-08-11 03:35,75.55,1001.20,1019.52,152,18.68,14.29,-93,1
1597109810,2020-08-11 03:36,76.51,1001.26,1019.57,152,18.67,14.47,-92,1
1597109870,2020-08-11 03:37,76.23,1001.22,1019.54,152,18.67,14.42,-94,1
1597109931,2020-08-11 03:38,77.06,1001.25,1019.56,152,18.66,14.57,-93,1
1597109991,2020-08-11 03:39,75.61,1001.26,1019.58,152,18.67,14.29,-93,1
1597110051,2020-08-11 03:40,74.57,1001.29,1019.61,152,18.66,14.07,-94,1
1597110111,2020-08-11 03:41,77.09,1001.28,1019.60,152,18.66,14.58,-92,1
1597110171,2020-08-11 03:42,75.97,1001.32,1019.63,152,18.66,14.35,-94,1
1597110231,2020-08-11 03:43,75.54,1001.27,1019.58,152,18.65,14.26,-93,1
1597110291,2020-08-11 03:44,75.23,1001.32,1019.63,152,18.65,14.19,-92,1
1597110351,2020-08-11 03:45,75.57,1001.26,1019.57,152,18.65,14.26,-91,1
1597110412,2020-08-11 03:46,76.27,1001.29,1019.61,152,18.65,14.41,-93,1
1597110472,2020-08-11 03:47,76.06,1001.31,1019.62,152,18.66,14.37,-92,1
1597110532,2020-08-11 03:48,76.11,1001.27,1019.59,152,18.66,14.38,-93,1
1597110592,2020-08-11 03:49,76.34,1001.29,1019.61,152,18.66,14.43,-94,1
1597110652,2020-08-11 03:50,76.68,1001.31,1019.62,152,18.65,14.49,-91,1
1597110712,2020-08-11 03:51,77.15,1001.33,1019.64,152,18.64,14.57,-93,1
1597110773,2020-08-11 03:52,76.14,1001.32,1019.64,152,18.64,14.37,-92,1
1597110833,2020-08-11 03:53,74.80,1001.32,1019.63,152,18.64,14.10,-93,1
1597110893,2020-08-11 03:54,76.04,1001.34,1019.66,152,18.64,14.35,-93,1
1597111014,2020-08-11 03:56,77.22,1001.35,1019.66,152,18.64,14.59,-94,1
1597111074,2020-08-11 03:57,76.22,1001.32,1019.64,152,18.63,14.38,-93,1
1597111134,2020-08-11 03:58,75.91,1001.34,1019.65,152,18.63,14.31,-94,1
1597111194,2020-08-11 03:59,76.74,1001.35,1019.66,152,18.63,14.48,-94,1
1597111254,2020-08-11 04:00,75.27,1001.36,1019.67,152,18.64,14.19,-91,1
1597111314,2020-08-11 04:01,76.58,1001.38,1019.69,152,18.63,14.45,-94,1
1597111375,2020-08-11 04:02,76.92,1001.39,1019.70,152,18.60,14.49,-92,1
1597111435,2020-08-11 04:03,76.14,1001.38,1019.69,152,18.61,14.34,-93,1
1597111495,2020-08-11 04:04,76.11,1001.39,1019.70,152,18.61,14.33,-94,1
1597111555,2020-08-11 04:05,75.89,1001.34,1019.65,152,18.60,14.28,-94,1
1597111615,2020-08-11 04:06,76.13,1001.39,1019.70,152,18.60,14.33,-93,1
1597111676,2020-08-11 04:07,75.03,1001.41,1019.72,152,18.61,14.11,-93,1
1597111736,2020-08-11 04:08,75.73,1001.40,1019.71,152,18.61,14.26,-92,1
1597111856,2020-08-11 04:10,76.22,1001.40,1019.71,152,18.61,14.36,-92,1
1597111916,2020-08-11 04:11,74.80,1001.43,1019.74,152,18.62,14.08,-91,1
1597111976,2020-08-11 04:12,75.72,1001.41,1019.73,152,18.62,14.26,-93,1
1597112036,2020-08-11 04:13,75.73,1001.43,1019.75,152,18.61,14.26,-92,1
1597112096,2020-08-11 04:14,76.49,1001.44,1019.75,152,18.61,14.41,-93,1
1597112156,2020-08-11 04:15,75.03,1001.42,1019.73,152,18.61,14.11,-92,1
1597112217,2020-08-11 04:16,76.60,1001.40,1019.71,152,18.61,14.43,-95,1
1597112277,2020-08-11 04:17,75.70,1001.39,1019.71,152,18.62,14.26,-93,1
1597112338,2020-08-11 04:18,76.43,1001.39,1019.71,152,18.61,14.40,-93,1
1597112398,2020-08-11 04:19,75.19,1001.40,1019.71,152,18.62,14.16,-94,1
1597112458,2020-08-11 04:20,75.90,1001.41,1019.72,152,18.62,14.30,-93,1
1597112518,2020-08-11 04:21,75.85,1001.40,1019.72,152,18.62,14.29,-92,1
1597112579,2020-08-11 04:22,76.33,1001.43,1019.75,152,18.55,14.32,-94,1
1597112639,2020-08-11 04:23,75.54,1001.43,1019.74,152,18.63,14.24,-94,1
1597112699,2020-08-11 04:24,75.21,1001.39,1019.70,152,18.63,14.17,-92,1
1597112759,2020-08-11 04:25,75.09,1001.40,1019.72,152,18.64,14.16,-92,1
1597112880,2020-08-11 04:28,76.84,1001.39,1019.71,152,18.61,14.48,-94,1
1597112940,2020-08-11 04:29,75.91,1001.41,1019.72,152,18.62,14.30,-91,1
1597113001,2020-08-11 04:30,76.36,1001.41,1019.72,152,18.61,14.39,-94,1
1597113061,2020-08-11 04:31,76.81,1001.39,1019.70,152,18.61,14.48,-93,1
1597113121,2020-08-11 04:32,76.21,1001.43,1019.74,152,18.61,14.35,-94,1
1597113181,2020-08-11 04:33,76.76,1001.40,1019.72,152,18.60,14.46,-93,1
1597113241,2020-08-11 04:34,76.93,1001.41,1019.72,152,18.59,14.48,-94,1
1597113302,2020-08-11 04:35,76.76,1001.44,1019.75,152,18.58,14.44,-93,1
1597113362,2020-08-11 04:36,76.69,1001.44,1019.76,152,18.58,14.42,-92,1
1597113422,2020-08-11 04:37,77.32,1001.45,1019.76,152,18.57,14.54,-92,1
1597113482,2020-08-11 04:38,77.29,1001.42,1019.74,152,18.55,14.52,-92,1
1597113543,2020-08-11 04:39,76.57,1001.43,1019.74,152,18.56,14.38,-92,1
1597113603,2020-08-11 04:40,76.34,1001.48,1019.79,152,18.54,14.31,-94,1
1597113663,2020-08-11 04:41,76.90,1001.47,1019.78,152,18.54,14.43,-92,1
1597113724,2020-08-11 04:42,76.80,1001.47,1019.79,152,18.53,14.40,-96,1
1597113844,2020-08-11 04:44,76.08,1001.47,1019.78,152,18.53,14.25,-94,1
1597113905,2020-08-11 04:45,76.68,1001.50,1019.81,152,18.53,14.37,-94,1
1597113965,2020-08-11 04:46,76.68,1001.47,1019.79,152,18.51,14.35,-93,1
1597114025,2020-08-11 04:47,77.06,1001.51,1019.82,152,18.51,14.43,-94,1
1597114086,2020-08-11 04:48,75.90,1001.52,1019.84,152,18.50,14.18,-93,1
1597114146,2020-08-11 04:49,76.50,1001.54,1019.85,152,18.49,14.30,-90,1
1597114206,2020-08-11 04:50,76.49,1001.56,1019.87,152,18.49,14.29,-94,1
1597114267,2020-08-11 04:51,76.78,1001.54,1019.85,152,18.48,14.34,-93,1
1597114327,2020-08-11 04:52,77.03,1001.56,1019.87,152,18.47,14.38,-92,1
1597114387,2020-08-11 04:53,76.54,1001.53,1019.84,152,18.45,14.27,-91,1
1597114448,2020-08-11 04:54,77.21,1001.55,1019.86,152,18.46,14.41,-93,1
1597114508,2020-08-11 04:55,77.42,1001.55,1019.86,152,18.44,14.43,-92,1
1597114569,2020-08-11 04:56,76.03,1001.58,1019.89,152,18.37,14.09,-96,1
1597114629,2020-08-11 04:57,76.89,1001.59,1019.90,152,18.44,14.33,-93,1
1597114692,2020-08-11 04:58,77.12,1001.60,1019.92,152,18.43,14.36,-92,1
1597114753,2020-08-11 04:59,75.69,1001.60,1019.91,152,18.43,14.08,-92,1
1597114813,2020-08-11 05:00,77.16,1001.62,1019.93,152,18.42,14.36,-91,1
1597114934,2020-08-11 05:02,76.46,1001.62,1019.93,152,18.42,14.22,-94,1
1597114994,2020-08-11 05:03,76.46,1001.61,1019.93,152,18.41,14.21,-92,1
1597115055,2020-08-11 05:04,76.42,1001.62,1019.94,152,18.40,14.19,-95,1
1597115115,2020-08-11 05:05,75.69,1001.64,1019.95,152,18.40,14.05,-93,1
1597115175,2020-08-11 05:06,76.96,1001.68,1019.99,152,18.40,14.30,-92,1
1597115236,2020-08-11 05:07,77.62,1001.65,1019.96,152,18.37,14.41,-92,1
1597115296,2020-08-11 05:08,77.54,1001.69,1020.00,152,18.37,14.39,-93,1
1597115417,2020-08-11 05:10,76.18,1001.71,1020.03,152,18.37,14.12,-93,1
1597115477,2020-08-11 05:11,76.78,1001.72,1020.03,152,18.37,14.24,-93,1
1597115538,2020-08-11 05:12,76.37,1001.73,1020.05,152,18.36,14.14,-93,1
1597115598,2020-08-11 05:13,76.90,1001.73,1020.04,152,18.35,14.24,-93,1
1597115658,2020-08-11 05:14,76.41,1001.75,1020.06,152,18.34,14.13,-93,1
1597115718,2020-08-11 05:15,77.41,1001.73,1020.05,152,18.33,14.33,-94,1
1597115779,2020-08-11 05:16,77.13,1001.77,1020.08,152,18.29,14.23,-92,1
1597115839,2020-08-11 05:17,76.94,1001.75,1020.07,152,18.31,14.21,-94,1
1597115899,2020-08-11 05:18,76.65,1001.77,1020.09,152,18.31,14.15,-92,1
1597115959,2020-08-11 05:19,77.00,1001.81,1020.12,152,18.31,14.22,-93,1
1597116020,2020-08-11 05:20,76.97,1001.80,1020.11,152,18.30,14.21,-93,1
1597116080,2020-08-11 05:21,76.92,1001.77,1020.08,152,18.30,14.20,-95,1
1597116141,2020-08-11 05:22,76.30,1001.78,1020.09,152,18.30,14.07,-95,1
1597116201,2020-08-11 05:23,77.19,1001.80,1020.12,152,18.30,14.25,-93,1
1597116262,2020-08-11 05:24,77.30,1001.78,1020.10,152,18.30,14.27,-92,1
1597116322,2020-08-11 05:25,76.93,1001.82,1020.14,152,18.30,14.20,-94,1
1597116382,2020-08-11 05:26,76.21,1001.81,1020.12,152,18.31,14.06,-94,1
1597116443,2020-08-11 05:27,76.64,1001.80,1020.12,152,18.31,14.15,-92,1
1597116503,2020-08-11 05:28,75.60,1001.84,1020.15,152,18.32,13.95,-95,1
1597116563,2020-08-11 05:29,76.65,1001.81,1020.13,152,18.31,14.15,-92,1
1597116624,2020-08-11 05:30,76.65,1001.79,1020.11,152,18.31,14.15,-92,1
1597116684,2020-08-11 05:31,76.01,1001.82,1020.13,152,18.31,14.02,-90,1
1597116744,2020-08-11 05:32,76.63,1001.81,1020.12,152,18.31,14.15,-93,1
1597116805,2020-08-11 05:33,76.93,1001.82,1020.14,152,18.32,14.22,-95,1
1597116865,2020-08-11 05:34,76.02,1001.83,1020.14,152,18.32,14.04,-93,1
1597116925,2020-08-11 05:35,76.58,1001.80,1020.12,152,18.32,14.15,-91,1
1597116986,2020-08-11 05:36,76.77,1001.84,1020.16,152,18.33,14.20,-94,1
1597117106,2020-08-11 05:38,76.50,1001.83,1020.14,152,18.30,14.11,-91,1
1597117166,2020-08-11 05:39,75.65,1001.86,1020.17,152,18.33,13.97,-94,1
1597117286,2020-08-11 05:41,76.39,1001.86,1020.17,152,18.33,14.12,-92,1
1597117346,2020-08-11 05:42,75.27,1001.87,1020.18,152,18.35,13.91,-93,1
1597117406,2020-08-11 05:43,76.34,1001.88,1020.19,152,18.34,14.12,-93,1
1597117466,2020-08-11 05:44,76.01,1001.89,1020.21,152,18.35,14.06,-91,1
1597117527,2020-08-11 05:45,76.15,1001.90,1020.21,152,18.36,14.10,-93,1
1597117587,2020-08-11 05:46,76.14,1001.92,1020.24,152,18.34,14.08,-92,1
1597117647,2020-08-11 05:47,75.65,1001.94,1020.26,152,18.36,14.00,-92,1
1597117707,2020-08-11 05:48,75.62,1001.97,1020.28,152,18.37,14.00,-93,1
1597117768,2020-08-11 05:49,75.93,1001.96,1020.27,152,18.37,14.07,-94,1
1597117828,2020-08-11 05:50,76.47,1001.97,1020.28,152,18.37,14.17,-95,1
1597117888,2020-08-11 05:51,74.95,1001.99,1020.30,152,18.40,13.89,-94,1
1597117948,2020-08-11 05:52,75.55,1001.99,1020.30,152,18.41,14.03,-93,1
1597118008,2020-08-11 05:53,76.01,1001.98,1020.30,152,18.42,14.13,-93,1
1597118068,2020-08-11 05:54,74.60,1002.00,1020.31,152,18.43,13.85,-93,1
1597118129,2020-08-11 05:55,74.80,1002.01,1020.32,152,18.39,13.85,-93,1
1597118189,2020-08-11 05:56,75.78,1002.03,1020.34,152,18.44,14.10,-94,1
1597118249,2020-08-11 05:57,75.25,1002.00,1020.31,152,18.45,14.00,-92,1